Location: Hurstbourne Priors
(51.2000°N, 1.3667°W)
Time: 19:28:58
(UTC+00:00)

Transit 4A - Pass Details

Date: 21 April 2021
Orbit: 870 x 974 km, 66.8° (Epoch: 09 May)

Event Time Altitude Azimuth Distance (km) Brightness Sun altitude
Rises 23:25:02 0° 209° (SSW) 3,623 - -26.0°
Reaches altitude 10° 23:27:36 10° 208° (SSW) 2,668 - -26.1°
Exits shadow 23:33:11 69° 173° (S) 997 7.7 -26.2°
Maximum altitude 23:33:48 76° 124° (SE) 963 7.8 -26.3°
Drops below altitude 10° 23:39:53 10° 40° (NE) 2,611 10.8 -26.4°
Sets 23:42:22 0° 39° (NE) 3,541 11.6 -26.4°
